AO-07 1 07530U 74089B 26035.85175064 -.00000051 00000-0 -31206-4 0 9999 2 07530 101.9971 47.6895 0012274 25.0005 97.6755 12.53695608343938 UO-11 1 14781U 84021B 26035.84430842 .00002549 00000-0 26755-3 0 9993 2 14781 97.7894 3.0643 0006029 260.5474 99.5062 14.90378659237418 AO-27 1 22825U 93061C 26035.70217369 .00000160 00000-0 77838-4 0 9993 2 22825 98.7053 103.0754 0009295 125.5720 234.6330 14.30901480688058 FO-29 1 24278U 96046B 26035.59883306 -.00000005 00000-0 27934-4 0 9991 2 24278 98.5424 262.4879 0350867 80.4690 283.5912 13.53266488455236 GO-32 1 25397U 98043D 26035.51450147 .00000099 00000-0 63046-4 0 9994 2 25397 98.9982 24.9853 0000649 186.3151 173.8019 14.24396210432446 ISS 1 25544U 98067A 26035.53404010 .00009649 00000-0 18669-3 0 9994 2 25544 51.6314 236.2588 0011166 64.0196 296.1942 15.48388993551199 NO-44 1 26931U 01043C 26035.79964533 .00000206 00000-0 10796-3 0 9995 2 26931 67.0488 226.6725 0007050 266.4607 93.5689 14.31892534271492 SO-50 1 27607U 02058C 26035.70306097 .00002263 00000-0 28517-3 0 9994 2 27607 64.5527 178.7782 0074309 286.6550 72.6407 14.82645923244817 CO-55 1 27844U 03031E 26035.54529303 .00000437 00000-0 20853-3 0 9994 2 27844 98.6773 45.7587 0009103 205.0069 155.0670 14.24237133172798 CO-57 1 27848U 03031J 26035.74894758 .00000368 00000-0 18097-3 0 9999 2 27848 98.6803 45.7788 0008700 223.6821 136.3669 14.23536735172534 RS-22 1 27939U 03042A 26035.86190949 .00001632 00000-0 26134-3 0 9992 2 27939 98.3393 216.5176 0010888 333.9312 163.2362 14.73155582196060 CO-58 1 28895U 05043F 26035.41327616 .00002399 00000-0 38864-3 0 9995 2 28895 98.2774 188.4247 0013158 266.3345 93.6356 14.72163801 82210 CO-65 1 32785U 08021C 26035.87060070 .00008248 00000-0 54118-3 0 9994 2 32785 97.8162 14.7803 0011022 113.6716 246.5670 15.07878361965246 CO-66 1 32791U 08021J 26035.52973718 .00022481 00000-0 83441-3 0 9991 2 32791 97.7487 27.6295 0005458 72.2363 287.9470 15.27582540967000 RS-30 1 32953U 08025A 26035.87261046 .00000091 00000-0 58207-3 0 9992 2 32953 82.4992 77.7497 0018481 238.0731 121.8552 12.43174957803250 SRMSAT 1 37841U 11058D 26035.59879629 .00000489 00000-0 12131-3 0 9991 2 37841 19.9709 141.9813 0011610 184.7748 205.7826 14.11534857739069 ZACUBE-1 1 39417U 13066B 26035.84575579 .00008931 00000-0 71201-3 0 9991 2 39417 97.8171 357.5157 0041054 333.4354 26.4764 14.99898899660882 Delfi-N3xt 1 39428U 13066N 26035.71464467 .00011795 00000-0 10752-2 0 9997 2 39428 97.8353 316.3424 0075714 287.7457 71.5509 14.93081409654843 GOMX-1 1 39430U 13066Q 26035.65348797 .00003262 00000-0 49661-3 0 9992 2 39430 97.6573 244.4167 0130401 142.6176 218.4192 14.68948963650457 LO-74 1 39440U 13066AA 26035.85199528 .00005504 00000-0 52227-3 0 9994 2 39440 97.8774 344.4961 0060625 105.5397 255.2526 14.92553342657243 AO-73 1 39444U 13066AE 26035.85259501 .00012699 00000-0 83378-3 0 9990 2 39444 97.8143 4.8634 0036210 295.2268 64.5207 15.07236015659711 DTUSAT-2 1 40030U 14033W 26035.86063699 .00010669 00000-0 60985-3 0 9994 2 40030 98.0813 25.4356 0007369 339.1663 20.9264 15.12870722632660 EO-80 1 40032U 14033Y 26035.47061714 .00009512 00000-0 54256-3 0 9998 2 40032 98.0694 24.3433 0005634 267.8230 92.2354 15.12989861632581 LILACSAT-2 1 40908U 15049K 26035.85760660 .00020039 00000-0 40108-3 0 9994 2 40908 97.4854 67.9656 0008172 26.3960 333.7705 15.46763774575266 Horyu-4 1 41340U 16012D 26035.06811737 .00077460 00000-0 10105-2 0 9994 2 41340 30.9926 302.1395 0002412 37.4204 322.6615 15.57331621549855 Lapan A3 1 41603U 16040E 26035.84907538 .00005177 00000-0 16921-3 0 9997 2 41603 97.1458 36.4642 0012123 124.2136 236.0257 15.32079661534549 CAS-2T 1 41847U 16066G 26035.80186133 .00002390 00000-0 34371-3 0 9994 2 41847 98.3948 113.0052 0343298 170.9586 189.8007 14.44345736485689 TechnoSat 1 42829U 17042E 26035.69734306 .00005064 00000-0 36984-3 0 9991 2 42829 97.4097 198.6127 0017930 180.5648 179.5561 15.03961387466787 AO-91 1 43017U 17073E 26035.60517309 .00009661 00000-0 44092-3 0 9994 2 43017 97.4900 265.6084 0159209 65.7270 296.0498 15.10114208445363 S-Net D 1 43186U 18014G 26035.72483052 .00007202 00000-0 38688-3 0 9990 2 43186 97.5470 301.4047 0010182 111.7426 248.4891 15.15169969438697 S-Net B 1 43187U 18014H 26035.73379572 .00007434 00000-0 39944-3 0 9996 2 43187 97.5475 301.3960 0010881 108.2190 252.0228 15.15142598438695 S-Net A 1 43188U 18014J 26035.72431659 .00007158 00000-0 38443-3 0 9997 2 43188 97.5486 301.5716 0010815 108.6288 251.6119 15.15175776438696 S-Net C 1 43189U 18014K 26035.73698123 .00007412 00000-0 39824-3 0 9997 2 43189 97.5501 301.6383 0012228 103.1779 257.0818 15.15134463437245 Ten-Koh 1 43677U 18084G 26035.47305204 .00004025 00000-0 31026-3 0 9995 2 43677 98.0716 222.2798 0009232 202.7979 157.2836 15.02203858396233 PO-101 1 43678U 18084H 26035.83249707 .00001822 00000-0 15246-3 0 9999 2 43678 98.1069 226.5190 0008231 229.7433 130.3070 14.99796602396377 QO-100 1 43700U 18090A 26035.77660602 .00000000 00000-0 00000 0 0 9991 2 43700 0.0152 117.5952 0002405 243.3311 79.3649 1.00269992 26343 MinXSS-2 1 43758U 18099A 26035.16963025 .00034762 00000-0 92673-3 0 9994 2 43758 97.4699 108.3626 0009017 31.0205 329.1570 15.38039394393622 AO-95 1 43770U 18099N 26035.68120903 .00013704 00000-0 57595-3 0 9992 2 43770 97.4576 96.5959 0010706 94.9434 265.3025 15.23489574393029 SNUSat 2 1 43782U 18099AA 26035.68145410 .00010462 00000-0 49492-3 0 9990 2 43782 97.4260 91.1830 0011732 46.1785 314.0418 15.19493398392895 SnugLite 1 43784U 18099AC 26035.12892865 .00014032 00000-0 58361-3 0 9996 2 43784 97.4073 90.8905 0004004 57.0484 303.1138 15.23880346393032 ITASat 1 1 43786U 18099AE 26035.60430610 .00008931 00000-0 45262-3 0 9994 2 43786 97.4235 89.8044 0014614 94.8112 265.4790 15.17102389392794 EAGLET 1 1 43790U 18099AJ 26035.66171389 .00005166 00000-0 30598-3 0 9993 2 43790 97.4434 88.8112 0013036 85.0092 275.2627 15.11763090392302 ESEO 1 43792U 18099AL 26035.65228273 .00002699 00000-0 20039-3 0 9996 2 43792 97.4173 78.6241 0013567 68.9771 291.2905 15.03772330391884 JO-97 1 43803U 18099AX 26035.71617775 .00019431 00000-0 69090-3 0 9997 2 43803 97.4324 98.4116 0006681 32.0253 328.1392 15.29012971393352 Suomi 100 1 43804U 18099AY 26035.68875593 .00015158 00000-0 60821-3 0 9993 2 43804 97.4391 96.7652 0011218 34.4405 325.7558 15.25023033393208 ISAT 1 43879U 18111D 26035.71373243 .00052791 00000-0 10354-2 0 9998 2 43879 97.5911 322.7771 0008984 73.1796 287.0438 15.47142892390575 UWE-4 1 43880U 18111E 26035.70628624 .00032450 00000-0 87303-3 0 9994 2 43880 97.5868 318.8580 0012017 82.2690 277.9919 15.37740689390364 Sparrow 1 43881U 18111F 26035.73679837 .00060755 00000-0 10718-2 0 9994 2 43881 97.6111 326.9169 0008171 96.1351 264.0831 15.50158923390712 Prox-1 1 44339U 19036A 26035.02477536 .00017672 00000-0 18964-2 0 9995 2 44339 23.9952 281.3985 0006964 296.7027 63.2759 14.86945051353601 Taurus 1 1 44530U 19059C 26035.82905417 .00012549 00000-0 20861-2 0 9992 2 44530 98.6259 192.7194 0008399 6.7511 353.3805 14.70237598339186 TO-108 1 44881U 19093C 26035.83229553 .00001926 00000-0 22473-3 0 9999 2 44881 97.7677 111.2383 0014044 156.8242 203.3610 14.86263133331751 FloripaSat 1 1 44885U 19093G 26035.81658465 .00009092 00000-0 69393-3 0 9993 2 44885 97.7900 129.2622 0011905 154.1589 206.0232 15.02167775332763 RS-44 1 44909U 19096E 26035.56837243 .00000010 00000-0 -11118-4 0 9993 2 44909 82.5174 67.8348 0218659 94.4576 268.1539 12.79746821285384 SALSAT 1 46495U 20068K 26035.53293740 .00011216 00000-0 41927-3 0 9990 2 46495 97.8827 30.7650 0011853 54.1114 306.1222 15.27468128295091 CSS (TIANHE-1) 1 48274U 21035A 26035.48786892 .00016594 00000-0 20945-3 0 9992 2 48274 41.4675 49.9559 0005892 357.7325 2.3485 15.59177353272426 CUTE 1 49263U 21088D 26035.49815183 .00036364 00000-0 38864-3 0 9992 2 49263 97.4273 125.9182 0004570 77.1540 283.0229 15.63813242241688 TeikyoSat 4 1 49396U 21102B 26035.65320144 .00002761 00000-0 17845-3 0 9992 2 49396 97.3834 70.2203 0013092 35.4107 324.7989 15.08948179232737 Z-Sat 1 49399U 21102E 26035.87505196 .00004139 00000-0 21166-3 0 9993 2 49399 97.3511 75.1915 0016845 355.2902 4.8171 15.17070616233373 KOSEN 1 1 49402U 21102H 26035.60462943 .00009855 00000-0 40024-3 0 9995 2 49402 97.3389 80.3899 0013162 321.3636 38.6659 15.24700119233807 HO-113 1 50466U 21131B 26035.87406870 .00000631 00000-0 20929-3 0 9990 2 50466 98.5000 129.0142 0005013 127.8277 232.3366 14.41204911216053 SNUGLITE 2 1 52899U 22065F 26035.66204274 .00001651 00000-0 32388-3 0 9995 2 52899 98.1974 180.9117 0008606 82.2382 277.9797 14.64032136191600 UmKA 1 (RS40S) 1 57172U 23091G 26035.77364323 .00008760 00000-0 41998-3 0 9993 2 57172 97.5245 95.0126 0012414 216.2930 143.7463 15.19080296143898 CubeBel-2 (EU11S) 1 57175U 23091K 26035.79344869 .00015284 00000-0 60042-3 0 9991 2 57175 97.5241 98.0357 0009842 216.4255 143.6314 15.25745360144093 RS-38S 1 57189U 23091Z 26035.84596705 .00021348 00000-0 70305-3 0 9991 2 57189 97.5265 103.0153 0008131 174.4035 185.7298 15.31476197144403 SONATE-2 1 59112U 24043Q 26035.34716772 .00034126 00000-0 63531-3 0 9991 2 59112 97.5359 178.7524 0008252 334.0955 25.9881 15.48751656107265 MO-122 1 60209U 24125G 26035.56075691 .00042042 00000-0 73047-3 0 9992 2 60209 97.2483 251.1201 0013480 353.7976 6.3107 15.50609556 88937 GRBBeta 1 60237U 24128C 26035.76539542 .00006032 00000-0 41959-3 0 9994 2 60237 61.9918 320.4675 0054048 107.3864 253.3149 15.05398208 86328 Curium One 1 60242U 24128H 26035.85116993 .00011379 00000-0 68374-3 0 9991 2 60242 61.9805 313.6839 0054037 104.3130 256.3972 15.10088675 86457 ROBUSTA-3A 1 60243U 24128J 26035.48194829 .00011359 00000-0 69553-3 0 9993 2 60243 61.9885 316.7688 0054502 101.6233 259.0986 15.09388438 86377 CatSat 1 60246U 24125J 26035.82999320 .00048164 00000-0 98406-3 0 9993 2 60246 97.2244 247.7989 0029291 312.8681 47.0108 15.45541508 86862 HYPERVIEW-1G (RS66S) 1 61772U 24199AP 26035.88865763 .00066274 00000-0 10282-2 0 9995 2 61772 97.3144 271.2017 0011027 48.6126 311.6074 15.53705989114001 AO-123 1 61781U 24199AY 26035.86344310 .00012197 00000-0 37935-3 0 9993 2 61781 97.3198 265.7584 0015913 65.2100 295.0796 15.33335939113638 HADES-R (SO-124) 1 62690U 25009CK 26032.99082620 .05664363 23962-5 28116-2 0 9998 2 62690 97.3536 123.7794 0009923 302.1245 57.9081 16.20799086 58844 HYDRA-T 1 62692U 25009CM 26028.19742799 .10589489 24473-5 20739-2 0 9999 2 62692 97.3569 119.0624 0010828 297.3030 62.7162 16.31546071 58115 JINJUSat 1B 1 63210U 25052A 26035.69089141 .00019256 00000-0 68769-3 0 9992 2 63210 97.4167 292.5832 0003321 161.5568 198.5793 15.28886683 49820 NUSHSAT 1 1 63211U 25052B 26035.64274263 .00023718 00000-0 80922-3 0 9992 2 63211 97.4146 292.7446 0003029 162.1775 197.9572 15.30334542 49837 TEVEL2-4 1 63213U 25052D 26035.67025864 .00022115 00000-0 77500-3 0 9996 2 63213 97.4065 292.2053 0001819 169.4396 190.6883 15.29480051 49821 TEVEL2-5 1 63214U 25052E 26035.67880627 .00021425 00000-0 75333-3 0 9998 2 63214 97.4063 292.1927 0001804 168.9167 191.2114 15.29377140 49821 TEVEL2-6 1 63215U 25052F 26035.68771880 .00021665 00000-0 76268-3 0 9994 2 63215 97.4066 292.1880 0001821 170.5710 189.5565 15.29334882 49821 TEVEL2-1 1 63217U 25052H 26035.67735064 .00021160 00000-0 75382-3 0 9995 2 63217 97.4041 291.9418 0001406 194.5377 165.5823 15.28951651 49812 TEVEL2-3 1 63218U 25052J 26035.61018880 .00021483 00000-0 76461-3 0 9997 2 63218 97.4045 291.8837 0001290 193.2952 166.8254 15.28979760 49809 TEVEL2-2 1 63219U 25052K 26035.67804486 .00020230 00000-0 72087-3 0 9998 2 63219 97.4044 291.9432 0001412 199.1305 160.9882 15.28952262 49815 TEVEL2-9 1 63237U 25052AD 26035.69602023 .00019633 00000-0 73479-3 0 9994 2 63237 97.4104 291.5858 0004615 247.8284 112.2465 15.27335106 49778 TEVEL2-7 1 63238U 25052AE 26035.65041545 .00019965 00000-0 75148-3 0 9990 2 63238 97.4104 291.5021 0004760 248.0601 112.0132 15.27141264 49766 TEVEL2-8 1 63239U 25052AF 26035.65693907 .00020320 00000-0 76534-3 0 9993 2 63239 97.4105 291.4903 0004713 249.5888 110.4845 15.27117154 49761 HYDRA-W 1 63490U 25052BL 26035.80351215 .00129864 00000-0 20930-2 0 9993 2 63490 97.4003 295.7387 0003383 198.4112 161.7019 15.52465697 50078 HADES-ICM (SO-125) 1 63492U 25052BN 26035.69655487 .00097873 00000-0 18033-2 0 9995 2 63492 97.4006 295.1501 0003690 214.9443 145.1565 15.48794083 50023 Dragonfly 1 65729U 98067XH 26031.05194254 .08662331 12285-4 96629-3 0 9997 2 65729 51.6000 237.6139 0006569 265.0285 94.9990 16.36242872 20999 RSP-03 1 65732U 98067XL 26035.72619045 .00601132 16331-3 13973-2 0 9998 2 65732 51.6162 217.1774 0005829 262.1865 97.8482 15.96476221 21698 BOTAN 1 65942U 98067XP 26034.91604493 .00306933 00000-0 14689-2 0 9991 2 65942 51.6183 227.5880 0005467 240.0563 119.9896 15.81334182 18228 CEVROSAT1 1 66309U 25248S 26035.22095824 .00006421 00000-0 31541-3 0 9993 2 66309 45.4050 113.8451 0002705 351.6710 8.4130 15.18880270 14285 SPIRONE 1 66657U 25274H 26035.70898810 .00003171 00000-0 31109-3 0 9996 2 66657 97.7429 327.0120 0013977 93.9154 266.3664 14.92848569 10452 K-HERO 1 66660U 25274L 26035.61870529 .00003916 00000-0 37816-3 0 9995 2 66660 97.7434 326.9821 0015909 98.6144 261.6878 14.93321752 10441 SNUGLITE-III DURI 1 66661U 25274M 26035.74669273 .00003437 00000-0 33164-3 0 9992 2 66661 97.7430 327.1193 0016457 99.4570 260.8510 14.93425941 10465 SilverSat 1 66909U 98067XV 26035.73096154 .00111974 00000-0 12469-2 0 9998 2 66909 51.6265 232.3240 0002733 198.6299 161.4595 15.61983698 10022 SAKHACUBE-CHOLBON 1 67290U 25313AU 26035.75497772 .00013221 00000-0 57924-3 0 9991 2 67290 97.4068 112.6332 0011074 101.2938 258.9544 15.22079070 5819 QMR-KWT 1 67291U 25313AV 26035.75225842 .00017861 00000-0 77465-3 0 9995 2 67291 97.4068 112.6368 0010782 100.9575 259.2875 15.22359585 5810 IO-86 1 40931U 25360.30710720 .00000000 00000-0 12800-3 0 00 2 40931 6.0006 332.5373 0012733 338.8432 8.1437 14.79075515 01